Miscellaneous Local Product
Issued by NWS North Platte, NE

Home | Current Version | Previous Version | Text Only | Print | Product List | Glossary On
Versions: 1 2 3 4 5 6 7 8 9 10 11 12 13 14 15 16 17 18 19 20 21 22 23 24 25 26 27 28 29 30 31 32 33 34 35 36 37 38 39 40 41 42 43 44 45 46 47 48 49 50
000
AXUS43 KLBF 270410
MISLBF


WESTERN AND NORTH CENTRAL NEBRASKA HOURLY WEATHER ROUNDUP
NATIONAL WEATHER SERVICE NORTH PLATTE NE
1000 PM CST THU FEB 26 2015

***STATIONS NOT REPORTING VARIABLES SUCH AS SKY/WEATHER OR
PRESSURE ARE PROVIDED BY THE NEBRASKA DEPARTMENT OF
ROADS...RAWS...AND APRS NETWORKS...AND ARE NOT UNDER
NATIONAL WEATHER SERVICE QUALITY CONTROL***

...OBSERVATIONS IN AND NEAR THE EASTERN PANHANDLE OF NEBRASKA...

CITY           SKY/WX    TMP DP  RH WIND       PRES   REMARKS
PINE RIDGE     CLEAR     -1  -7  75 CALM      30.37F
CHADRON        CLEAR     -3  -8  79 SE5       30.38S WCI -13
ALLIANCE       CLEAR      2  -3  80 E3        30.30S
SIDNEY         CLOUDY     9   1  70 E9        30.28R WCI  -4
WHITECLAY        N/A     -2  -9  73 CALM        N/A
CRESCENT LAKE    N/A      4  -6  64 E6          N/A  WCI  -7
LISCO            N/A     13  -1  52 N12         N/A  WCI   0
BIG SPRINGS      N/A     10   2  69 E3          N/A
LEWELLEN         N/A      6  -5  62 CALM        N/A
$$

...OBSERVATIONS IN NORTH CENTRAL NEBRASKA...

CITY           SKY/WX    TMP DP  RH WIND       PRES   REMARKS
VALENTINE      CLEAR      1  -5  75 CALM      30.45R
THEDFORD       CLEAR      3  -3  75 CALM      30.42S
AINSWORTH      CLEAR      2  -4  75 CALM      30.44S
O`NEILL        CLEAR      0  -6  76 N7        30.50R WCI -13
ORD            CLEAR      1  -7  68 CALM      30.49S
BROKEN BOW     CLEAR     -1  -8  72 N5        30.45R WCI -11
BROWNLEE         N/A     -1  -7  77 CALM        N/A
SPRINGVIEW       N/A     -3  -8  79 CALM        N/A
BREWSTER         N/A      6   0  74 CALM        N/A
ROSE             N/A     30  27  86 CALM        N/A
NEWPORT          N/A     10   3  74 CALM        N/A
SARGENT          N/A      3  -3  77 CALM        N/A
COMSTOCK         N/A      2  -7  66 CALM        N/A
CHAMBERS         N/A      1 -15  46 CALM        N/A
EWING            N/A      0  -6  76 CALM        N/A
$$

...OBSERVATIONS IN SOUTHWEST NEBRASKA AND FAR NORTHEAST COLORADO...

CITY           SKY/WX    TMP DP  RH WIND       PRES   REMARKS
WRAY           CLOUDY    16   6  66 E10       30.34R WCI   3
IMPERIAL         N/A      9  -2  61 NE8       30.38R WCI  -3
OGALLALA       CLEAR      9  -3  58 E8        30.38R WCI  -3
NORTH PLATTE   CLEAR      2  -7  66 SE3       30.43R
MCCOOK         CLEAR     10  -3  55 NE5       30.45R WCI   2
LEXINGTON      CLEAR      5  -6  61 NE3       30.47R
PAXTON           N/A      6  -4  63 NE3         N/A
BRADY            N/A      4  -6  62 CALM        N/A
GOTHENBURG       N/A      6  -6  58 CALM        N/A
CALLAWAY         N/A      2  -7  66 CALM        N/A
$$

...NORTH PLATTE AREA...

CITY           SKY/WX    TMP DP  RH WIND       PRES   REMARKS
AIRPORT        CLEAR      2  -7  66 SE3       30.43R
DOWNTOWN         N/A      6  -4  62 CALM        N/A
$$

...SOME WEATHER OBSERVATIONS FROM AROUND THE REGION...

CITY           SKY/WX    TMP DP  RH WIND       PRES   REMARKS
DENVER         LGT SNOW  13  10  88 E15       30.11F FOG     WCI  -3
LARAMIE        CLOUDY     4  -2  76 SE18      29.95S WCI -16
CHEYENNE       LGT SNOW   7   2  80 SE13      30.07F WCI  -9
SCOTTSBLUFF    CLOUDY     8   0  69 E7        30.30S WCI  -3
RAPID CITY     CLEAR     -4 -12  68 NW6       30.38S WCI -16
PIERRE         CLEAR     -1  -7  75 NE3       30.52S
WINNER         FAIR       4  -8  57 CALM      30.50S
SIOUX FALLS    CLEAR     -5 -10  79 NW8       30.52S WCI -20
OMAHA          CLEAR      3  -2  79 NW5       30.59R WCI  -6
GRAND ISLAND   CLEAR      2  -4  76 N8        30.53R WCI -12
KANSAS CITY    CLEAR      7  -2  66 N9        30.57R WCI  -7
WICHITA        MOCLDY    17  -1  45 NE12      30.52R WCI   4
HAYS           CLEAR     10  -9  40 NE8       30.47R WCI  -1
LIBERAL        CLOUDY    21   3  45 E8        30.39R WCI  12
GOODLAND       CLOUDY    17   3  54 E8        30.33R WCI   7
$$



USA.gov is the U.S. government's official web portal to all federal, state and local government web resources and services.